Location: Bazugues
(43.4465°N, 0.3432°E)
Time: 06:33:07
(UTC+00:00)

PSLV R/B - Pass Details

Date: 12 January 2026
Orbit: 560 x 588 km, 98.0° (Epoch: 10 February)

Event Time Altitude Azimuth Distance (km) Brightness Sun altitude
Rises 17:49:07 0° 138° (SE) 2,795 6.7 -11.5°
Reaches altitude 10° 17:51:28 10° 126° (SE) 1,904 5.7 -11.9°
Maximum altitude 17:54:59 28° 68° (ENE) 1,125 4.3 -12.5°
Drops below altitude 10° 17:58:32 10° 10° (N) 1,924 5.8 -13.2°
Sets 18:00:56 0° 358° (N) 2,831 6.8 -13.6°
